When you browse on this site, cookies collect data to enhance your experience and personalize the content and advertising you see.
Visit our Privacy Policy to learn more. By continuing to use the site, you agree to this use of cookies and data.
  • Em Portugal
  • Lista de países
  • Para 7 dias
  • Temperatura da água
  • Mapa do tempo
  • Widgets de tempo
  • user-avatar
    Iniciar Sessão

    Previsão horária em Kitzbuel

    Hoje, 19 Novembro, Terça-feira

    Tempo Temperatura Precipitação Vento Pressão Humidade
    00:00 -3°C° 0 mm 2 m/s 674 mmHg 85%
    01:00 -2°C° 0 mm 2 m/s 675 mmHg 84%
    02:00 -2°C° 0 mm 2 m/s 674 mmHg 84%
    03:00 -2°C° 0 mm 2 m/s 674 mmHg 84%
    04:00 -1°C° 0 mm 2 m/s 674 mmHg 85%
    05:00 -1°C° 0 mm 2 m/s 674 mmHg 85%
    06:00 -1°C° 0 mm 2 m/s 674 mmHg 85%
    07:00 -1°C° 0 mm 2 m/s 674 mmHg 86%
    08:00 +3°C° 0 mm 1 m/s 675 mmHg 83%
    09:00 +4°C° 0 mm 1 m/s 675 mmHg 81%
    10:00 +6°C° 0 mm 1 m/s 675 mmHg 79%
    11:00 +6°C° 0 mm 1 m/s 675 mmHg 78%
    12:00 +7°C° 0 mm 1 m/s 675 mmHg 77%
    13:00 +7°C° 0 mm 2 m/s 675 mmHg 76%
    14:00 +7°C° 0 mm 1 m/s 675 mmHg 81%
    15:00 +6°C° 0 mm 1 m/s 675 mmHg 86%
    16:00 +4°C° 0 mm 1 m/s 674 mmHg 91%
    17:00 +4°C° 0 mm 1 m/s 674 mmHg 92%
    18:00 +3°C° 0 mm 1 m/s 675 mmHg 93%
    19:00 +3°C° 0 mm 1 m/s 675 mmHg 93%
    20:00 +3°C° 0 mm 1 m/s 675 mmHg 94%
    21:00 +3°C° 0 mm 1 m/s 675 mmHg 94%
    22:00 +3°C° 0 mm 1 m/s 675 mmHg 94%
    23:00 +3°C° 0 mm 1 m/s 675 mmHg 94%

    Amanhã, 20 Novembro, Quarta-feira

    Tempo Temperatura Precipitação Vento Pressão Humidade
    00:00 +3°C° 0 mm 1 m/s 675 mmHg 94%
    01:00 +3°C° 0 mm 1 m/s 675 mmHg 94%
    02:00 +3°C° 0 mm 1 m/s 675 mmHg 94%
    03:00 +2°C° 0 mm 0 m/s 674 mmHg 94%
    04:00 +2°C° 0 mm 0 m/s 674 mmHg 94%
    05:00 +2°C° 0 mm 0 m/s 674 mmHg 94%
    06:00 +2°C° 0 mm 0 m/s 674 mmHg 94%
    07:00 +2°C° 0 mm 0 m/s 674 mmHg 94%
    08:00 +3°C° 0 mm 0 m/s 674 mmHg 91%
    09:00 +4°C° 0 mm 0 m/s 674 mmHg 88%
    10:00 +5°C° 0 mm 0 m/s 674 mmHg 85%
    11:00 +5°C° 0 mm 0 m/s 674 mmHg 83%
    12:00 +6°C° 0 mm 0 m/s 674 mmHg 82%
    13:00 +7°C° 0 mm 0 m/s 674 mmHg 80%
    14:00 +6°C° 0 mm 0 m/s 673 mmHg 85%
    15:00 +4°C° 0 mm 0 m/s 673 mmHg 89%
    16:00 +3°C° 0 mm 0 m/s 672 mmHg 94%
    17:00 +3°C° 0 mm 0 m/s 672 mmHg 93%
    18:00 +3°C° 0 mm 1 m/s 672 mmHg 92%
    19:00 +3°C° 0 mm 1 m/s 672 mmHg 91%
    20:00 +3°C° 0 mm 1 m/s 672 mmHg 90%
    21:00 +3°C° 0 mm 1 m/s 672 mmHg 89%
    22:00 +3°C° 0 mm 1 m/s 673 mmHg 88%
    23:00 +3°C° 0 mm 1 m/s 672 mmHg 87%

    Depois de amanhã, 21 Novembro, Quinta-feira

    Tempo Temperatura Precipitação Vento Pressão Humidade
    00:00 +3°C° 0 mm 1 m/s 672 mmHg 86%
    01:00 +3°C° 0 mm 1 m/s 672 mmHg 85%
    02:00 +3°C° 0 mm 1 m/s 672 mmHg 84%
    03:00 +3°C° 0 mm 1 m/s 672 mmHg 84%
    04:00 +3°C° 0 mm 1 m/s 672 mmHg 83%
    05:00 +2°C° 0 mm 1 m/s 672 mmHg 83%
    06:00 +2°C° 0 mm 1 m/s 672 mmHg 83%
    07:00 +2°C° 0 mm 1 m/s 672 mmHg 83%
    08:00 +3°C° 0 mm 1 m/s 672 mmHg 79%
    09:00 +5°C° 0 mm 1 m/s 672 mmHg 75%
    10:00 +6°C° 0 mm 1 m/s 672 mmHg 72%
    11:00 +7°C° 0 mm 1 m/s 672 mmHg 70%
    12:00 +8°C° 0 mm 1 m/s 672 mmHg 69%
    13:00 +9°C° 0 mm 1 m/s 672 mmHg 67%
    14:00 +7°C° 0 mm 1 m/s 672 mmHg 73%
    15:00 +6°C° 0 mm 1 m/s 672 mmHg 79%
    16:00 +5°C° 0 mm 1 m/s 671 mmHg 85%
    17:00 +4°C° 0 mm 1 m/s 671 mmHg 85%
    18:00 +4°C° 0 mm 1 m/s 671 mmHg 86%
    19:00 +2°C° 0 mm 2 m/s 672 mmHg 86%
    20:00 +2°C° 0 mm 2 m/s 672 mmHg 86%
    21:00 +1°C° 0 mm 2 m/s 672 mmHg 85%
    22:00 +1°C° 0 mm 2 m/s 672 mmHg 85%
    23:00 +1°C° 0 mm 2 m/s 672 mmHg 84%

    22 Novembro, Sexta-feira

    Tempo Temperatura Precipitação Vento Pressão Humidade
    00:00 +1°C° 0 mm 2 m/s 672 mmHg 84%
    01:00 +1°C° 0 mm 2 m/s 673 mmHg 83%
    02:00 +1°C° 0 mm 2 m/s 673 mmHg 83%
    03:00 +1°C° 0 mm 2 m/s 672 mmHg 83%
    04:00 +1°C° 0 mm 2 m/s 672 mmHg 83%
    05:00 -1°C° 0 mm 2 m/s 673 mmHg 82%
    06:00 -1°C° 0 mm 2 m/s 673 mmHg 82%
    07:00 -1°C° 0 mm 2 m/s 673 mmHg 81%
    08:00 +2°C° 0 mm 2 m/s 673 mmHg 77%
    09:00 +3°C° 0 mm 2 m/s 673 mmHg 73%
    10:00 +6°C° 0 mm 1 m/s 674 mmHg 69%
    11:00 +7°C° 0 mm 1 m/s 673 mmHg 68%
    12:00 +8°C° 0 mm 1 m/s 673 mmHg 66%
    13:00 +8°C° 0 mm 2 m/s 673 mmHg 65%
    14:00 +6°C° 0 mm 2 m/s 672 mmHg 70%
    15:00 +5°C° 0 mm 2 m/s 672 mmHg 74%
    16:00 +4°C° 0 mm 2 m/s 671 mmHg 79%
    17:00 +3°C° 0 mm 2 m/s 671 mmHg 79%
    18:00 +1°C° 0 mm 3 m/s 671 mmHg 80%
    19:00 0°C° 0 mm 3 m/s 671 mmHg 80%
    20:00 0°C° 0 mm 3 m/s 671 mmHg 79%
    21:00 -1°C° 0 mm 4 m/s 671 mmHg 78%
    22:00 -1°C° 0 mm 4 m/s 670 mmHg 77%
    23:00 -1°C° 0 mm 4 m/s 670 mmHg 78%

    23 Novembro, Sábado

    Tempo Temperatura Precipitação Vento Pressão Humidade
    00:00 -1°C° 0 mm 4 m/s 670 mmHg 78%
    01:00 -1°C° 0 mm 4 m/s 670 mmHg 78%
    02:00 -1°C° 0 mm 4 m/s 670 mmHg 79%
    03:00 -1°C° 0 mm 4 m/s 669 mmHg 79%
    04:00 0°C° 0 mm 4 m/s 669 mmHg 79%
    05:00 0°C° 0 mm 4 m/s 669 mmHg 79%
    06:00 +1°C° 0 mm 3 m/s 669 mmHg 79%
    07:00 +1°C° 0 mm 3 m/s 669 mmHg 80%
    08:00 +3°C° 0 mm 3 m/s 669 mmHg 76%
    09:00 +4°C° 0 mm 3 m/s 669 mmHg 73%
    10:00 +5°C° 0 mm 3 m/s 669 mmHg 70%
    11:00 +6°C° 0 mm 4 m/s 669 mmHg 68%
    12:00 +7°C° 0 mm 4 m/s 669 mmHg 67%
    13:00 +8°C° 0 mm 4 m/s 669 mmHg 66%
    14:00 +8°C° 0 mm 3 m/s 669 mmHg 70%
    15:00 +5°C° 0 mm 3 m/s 668 mmHg 73%
    16:00 +4°C° 0 mm 3 m/s 668 mmHg 77%
    17:00 +4°C° 0 mm 3 m/s 669 mmHg 78%
    18:00 +3°C° 0 mm 3 m/s 669 mmHg 79%
    19:00 +2°C° 0 mm 3 m/s 669 mmHg 80%
    20:00 +2°C° 0 mm 3 m/s 669 mmHg 81%
    21:00 +2°C° 0 mm 3 m/s 670 mmHg 81%
    22:00 +2°C° 0 mm 3 m/s 670 mmHg 81%
    23:00 +2°C° 0 mm 3 m/s 671 mmHg 82%

    24 Novembro, Domingo

    Tempo Temperatura Precipitação Vento Pressão Humidade
    00:00 +2°C° 0 mm 3 m/s 671 mmHg 83%
    01:00 +1°C° 0 mm 3 m/s 671 mmHg 84%
    02:00 +2°C° 0 mm 2 m/s 671 mmHg 84%
    03:00 +2°C° 0 mm 2 m/s 672 mmHg 84%
    04:00 +2°C° 0 mm 2 m/s 672 mmHg 84%
    05:00 +2°C° 0 mm 2 m/s 672 mmHg 84%
    06:00 +2°C° 0 mm 2 m/s 673 mmHg 83%
    07:00 +2°C° 0 mm 2 m/s 673 mmHg 83%
    08:00 +5°C° 0 mm 1 m/s 674 mmHg 79%
    09:00 +6°C° 0 mm 1 m/s 675 mmHg 75%
    10:00 +7°C° 0 mm 0 m/s 675 mmHg 71%
    11:00 +8°C° 0 mm 0 m/s 675 mmHg 70%
    12:00 +8°C° 0 mm 0 m/s 675 mmHg 69%
    13:00 +9°C° 0 mm 0 m/s 676 mmHg 67%
    14:00 +8°C° 0 mm 0 m/s 675 mmHg 73%
    15:00 +7°C° 0 mm 0 m/s 675 mmHg 79%
    16:00 +5°C° 0 mm 0 m/s 675 mmHg 85%
    17:00 +4°C° 0 mm 0 m/s 675 mmHg 85%
    18:00 +5°C° 0 mm 1 m/s 676 mmHg 85%
    19:00 +4°C° 0 mm 1 m/s 676 mmHg 85%
    20:00 +4°C° 0 mm 1 m/s 676 mmHg 85%
    21:00 +4°C° 0 mm 1 m/s 676 mmHg 84%
    22:00 +4°C° 0 mm 1 m/s 676 mmHg 84%
    23:00 +4°C° 0 mm 1 m/s 676 mmHg 83%
    Mostrar mais